FW2889 Weather Reports


Display with metric or nautical units.
time (UTC)temp
F
wind
direction
speed
MPH
gust
MPH
rain 1hr
in
rain 24hr
in
rain mn
in
humidity
%
barometer
mb
20260504033040 47 293 2.0 4.0 0.00 0.00 0.00 55 997.5
20260504030041 45 293 4.0 8.0 0.00 0.00 0.00 53 997.4
20260504023040 44 0 3.0 9.0 0.00 0.00 0.00 55 997.3
20260504020040 41 315 3.0 10.0 0.00 0.00 0.00 62 997.4
20260504013042 47 0 5.0 10.0 0.00 0.00 0.00 49 997.4
20260504010042 47 0 3.0 9.0 0.00 0.00 0.00 50 997.4
20260504003042 46 0 2.0 9.0 0.00 0.00 0.00 53 997.6
20260504000142 45 113 2.0 4.0 0.00 0.00 0.00 56 997.8
20260503233042 46 0 2.0 7.0 0.00 0.00 0.00 54 997.7
20260503230042 45 113 1.0 3.0 0.00 0.00 0.00 55 997.7
20260503223042 46 113 1.0 4.0 0.00 0.00 0.00 53 997.8
20260503220042 47 90 1.0 3.0 0.00 0.00 0.00 52 998.0
20260503213042 47 68 1.0 3.0 0.00 0.00 0.00 51 998.1
20260503210141 47 113 2.0 3.0 0.00 0.00 0.00 52 998.3
20260503203040 48 113 2.0 4.0 0.00 0.00 0.00 51 998.3
20260503200042 48 90 2.0 4.0 0.00 0.00 0.00 50 998.3
20260503193040 48 158 2.0 4.0 0.00 0.00 0.00 50 998.5
20260503190040 49 203 1.0 3.0 0.00 0.00 0.00 48 998.6
20260503183041 49 225 1.0 3.0 0.00 0.00 0.00 48 998.6
20260503180100 50 225 1.0 3.0 0.00 0.00 0.00 49 998.7
20260503173042 49 0.0 2.0 0.00 0.00 0.00 48 998.6
20260503053042 53 68 2.0 7.0 0.00 0.00 0.00 59 1001.2
20260503050041 52 68 2.0 7.0 0.00 0.00 0.00 62 1001.3
20260503043041 49 113 2.0 5.0 0.00 0.00 0.00 68 1001.3
20260503040041 46 68 1.0 3.0 0.00 0.00 0.00 74 1001.2